Location: Casco Volunteer Fire Department
(44.5576°N, 87.6146°W)
Time: 05:30:41
(UTC+00:00)

NOSS 2-2 (E) - Pass Details

Date: 22 January 2026
Orbit: 384 x 1721 km, 63.3° (Epoch: 11 February)

Event Time Altitude Azimuth Distance (km) Brightness Sun altitude
Rises 11:59:29 0° 215° (SW) 2,690 6.6 -14.1°
Reaches altitude 10° 12:01:52 10° 215° (SW) 1,658 5.6 -13.7°
Maximum altitude 12:05:24 87° 132° (SE) 425 2.7 -13.0°
Drops below altitude 10° 12:08:26 10° 38° (NE) 1,428 5.7 -12.5°
Sets 12:10:22 0° 38° (NE) 2,272 6.8 -12.2°
